GW6564 Weather Reports


time (UTC)temp
C
wind
direction
speed
KPH
gust
KPH
rain 1hr
cm
rain 24hr
cm
rain mn
cm
humidity
%
barometer
mb
20260510231423 18 273 0.0 1.6 0.00 0.08 0.08 82 1013.2
20260510230919 18 282 1.6 1.6 0.00 0.08 0.08 82 1013.1
20260510230415 18 255 0.0 1.6 0.00 0.08 0.08 81 1013.1
20260510225912 18 253 0.0 0.0 0.00 0.08 0.08 81 1013.0
20260510225408 18 254 0.0 0.0 0.00 0.08 0.08 80 1012.8
20260510224904 18 254 0.0 1.6 0.00 0.08 0.08 79 1012.8
20260510224400 19 254 1.6 1.6 0.00 0.08 0.08 79 1012.4
20260510223857 19 253 0.0 0.0 0.00 0.08 0.08 79 1012.4
20260510223354 19 253 0.0 0.0 0.00 0.08 0.08 79 1012.4
20260510222852 19 250 0.0 0.0 0.00 0.08 0.08 79 1012.2
20260510222349 19 262 0.0 1.6 0.00 0.08 0.08 77 1012.2
20260510221844 19 272 3.2 4.8 0.00 0.08 0.08 77 1012.5
20260510221341 19 270 3.2 3.2 0.00 0.08 0.08 78 1012.5
20260510220838 19 267 1.6 3.2 0.00 0.08 0.08 78 1012.5
20260510220334 19 280 1.6 4.8 0.00 0.08 0.08 78 1012.4
20260510215830 20 267 1.6 4.8 0.00 0.08 0.08 77 1012.3
20260510215327 20 341 6.4 9.7 0.18 0.08 0.08 75 1012.6
20260510214825 20 292 4.8 6.4 0.48 0.08 0.08 74 1012.6
20260510214321 21 259 1.6 4.8 0.30 0.05 0.05 70 1012.8
20260510213819 22 296 4.8 9.7 0.00 0.00 0.00 63 1012.7
20260510213315 22 275 3.2 4.8 0.00 0.00 0.00 60 1012.4
20260510212812 23 293 4.8 4.8 0.00 0.00 0.00 56 1012.3
20260510212309 23 261 3.2 3.2 0.00 0.00 0.00 55 1012.2
20260510211806 24 264 3.2 3.2 0.00 0.00 0.00 49 1012.0
20260510211303 24 257 1.6 3.2 0.00 0.00 0.00 46 1011.5
20260510210758 24 267 3.2 3.2 0.00 0.00 0.00 45 1011.4
20260510210252 24 254 4.8 6.4 0.00 0.00 0.00 45 1011.5
20260510205752 25 273 3.2 3.2 0.00 0.00 0.00 44 1011.3
20260510205248 25 273 3.2 6.4 0.00 0.00 0.00 43 1011.4
20260510204744 25 260 3.2 3.2 0.00 0.00 0.00 44 1011.7
20260510204241 25 263 3.2 4.8 0.00 0.00 0.00 43 1011.5
20260510203737 25 237 3.2 4.8 0.00 0.00 0.00 44 1011.4
20260510203235 25 285 3.2 4.8 0.00 0.00 0.00 46 1011.4
20260510202735 25 263 1.6 1.6 0.00 0.00 0.00 47 1011.6
20260510202230 25 257 3.2 3.2 0.00 0.00 0.00 47 1011.5
20260510201728 24 262 1.6 3.2 0.00 0.00 0.00 47 1011.6
20260510201224 24 262 1.6 3.2 0.00 0.00 0.00 49 1011.5
20260510200720 25 264 1.6 3.2 0.00 0.00 0.00 47 1011.8
20260510200218 25 271 3.2 3.2 0.00 0.00 0.00 49 1011.7
20260510195715 25 262 3.2 4.8 0.00 0.00 0.00 48 1011.7
20260510195212 25 265 1.6 3.2 0.00 0.00 0.00 48 1011.7
20260510194711 23 285 3.2 4.8 0.00 0.00 0.00 47 1012.0
20260510194208 23 265 3.2 12.9 0.00 0.00 0.00 50 1012.0
20260510193703 23 293 4.8 6.4 0.00 0.00 0.00 53 1012.0
20260510193158 23 259 3.2 4.8 0.00 0.00 0.00 54 1012.2
20260510192654 24 259 1.6 4.8 0.00 0.00 0.00 49 1012.1
20260510192150 25 286 3.2 4.8 0.00 0.00 0.00 48 1012.2
20260510191646 25 264 4.8 4.8 0.00 0.00 0.00 46 1012.0
20260510191143 25 254 1.6 3.2 0.00 0.00 0.00 47 1012.1
20260510190640 25 262 1.6 4.8 0.00 0.00 0.00 45 1012.1
20260510190137 25 262 3.2 3.2 0.00 0.00 0.00 45 1012.1
20260510185634 25 259 1.6 4.8 0.00 0.00 0.00 44 1012.2
20260510185132 25 267 1.6 4.8 0.00 0.00 0.00 44 1012.2
20260510184628 25 278 4.8 6.4 0.00 0.00 0.00 42 1012.1
20260510184125 25 251 3.2 9.7 0.00 0.00 0.00 42 1011.9
20260510183620 26 286 4.8 9.7 0.00 0.00 0.00 42 1012.2
20260510183115 26 266 4.8 6.4 0.00 0.00 0.00 41 1011.8
20260510182612 26 270 4.8 9.7 0.00 0.00 0.00 41 1012.0
20260510182108 26 254 4.8 6.4 0.00 0.00 0.00 40 1012.0
20260510181606 27 201 9.7 14.5 0.00 0.00 0.00 39 1011.9
20260510181101 27 270 8.0 12.9 0.00 0.00 0.00 39 1012.1
20260510180558 26 270 1.6 6.4 0.00 0.00 0.00 40 1012.2
20260510180056 27 261 6.4 11.3 0.00 0.00 0.00 38 1012.1
20260510175556 27 270 3.2 4.8 0.00 0.00 0.00 38 1012.1
20260510175052 26 257 3.2 6.4 0.00 0.00 0.00 38 1012.2
20260510174551 26 247 4.8 9.7 0.00 0.00 0.00 39 1012.1
20260510174047 27 262 3.2 9.7 0.00 0.00 0.00 42 1012.1
20260510173542 27 278 1.6 4.8 0.00 0.00 0.00 41 1012.1
20260510173040 26 251 3.2 4.8 0.00 0.00 0.00 42 1012.0
20260510172536 26 266 6.4 9.7 0.00 0.00 0.00 43 1012.1
20260510172032 27 231 4.8 6.4 0.00 0.00 0.00 41 1012.0
20260510171529 26 244 1.6 11.3 0.00 0.00 0.00 44 1012.1
20260510171026 26 288 4.8 6.4 0.00 0.00 0.00 43 1012.2
20260510170522 26 240 1.6 4.8 0.00 0.00 0.00 43 1012.3
20260510170019 26 238 1.6 4.8 0.00 0.00 0.00 45 1012.1
20260510165515 26 209 6.4 11.3 0.00 0.00 0.00 44 1012.3
20260510165011 25 269 1.6 1.6 0.00 0.00 0.00 46 1012.3
20260510164508 25 285 3.2 4.8 0.00 0.00 0.00 45 1012.3
20260510164004 25 254 0.0 1.6 0.00 0.00 0.00 48 1012.1
20260510163500 25 273 4.8 6.4 0.00 0.00 0.00 47 1012.4
20260510162955 25 269 3.2 4.8 0.00 0.00 0.00 46 1012.3
20260510162452 24 260 1.6 6.4 0.00 0.00 0.00 50 1012.2
20260510161948 25 264 3.2 3.2 0.00 0.00 0.00 47 1012.2
20260510161444 25 255 1.6 4.8 0.00 0.00 0.00 47 1012.2
20260510160941 23 270 3.2 4.8 0.00 0.00 0.00 47 1012.4
20260510160439 23 310 1.6 4.8 0.00 0.00 0.00 48 1012.3
20260510155936 23 315 3.2 4.8 0.00 0.00 0.00 47 1012.5
20260510155435 23 244 6.4 6.4 0.00 0.00 0.00 48 1012.4
20260510154931 23 256 4.8 6.4 0.00 0.00 0.00 50 1012.5
20260510154427 23 257 1.6 9.7 0.00 0.00 0.00 52 1012.5
20260510153925 23 271 6.4 6.4 0.00 0.00 0.00 53 1012.6
20260510153422 22 257 3.2 4.8 0.00 0.00 0.00 54 1012.7
20260510152919 22 348 6.4 6.4 0.00 0.00 0.00 54 1012.8
20260510152417 22 268 4.8 4.8 0.00 0.00 0.00 56 1012.8
20260510151913 21 316 4.8 9.7 0.00 0.00 0.00 56 1012.7
20260510151410 22 321 4.8 6.4 0.00 0.00 0.00 55 1012.6
20260510150906 22 260 3.2 6.4 0.00 0.00 0.00 58 1012.6
20260510150402 22 246 4.8 6.4 0.00 0.00 0.00 59 1012.8
20260510145858 21 261 1.6 4.8 0.00 0.00 0.00 61 1012.8
20260510145355 21 259 3.2 3.2 0.00 0.00 0.00 62 1012.6
20260510144851 21 262 1.6 3.2 0.00 0.00 0.00 63 1012.8
20260510144348 21 221 3.2 3.2 0.00 0.00 0.00 62 1012.7
20260510143843 20 232 1.6 3.2 0.00 0.00 0.00 65 1012.7
20260510143339 20 254 1.6 6.4 0.00 0.00 0.00 66 1012.7
20260510142836 20 247 1.6 4.8 0.00 0.00 0.00 65 1012.6
20260510142333 20 302 3.2 4.8 0.00 0.00 0.00 67 1012.7
20260510141830 18 253 1.6 1.6 0.00 0.00 0.00 70 1012.8
20260510141327 18 233 1.6 6.4 0.00 0.00 0.00 70 1012.8
20260510140824 18 260 3.2 3.2 0.00 0.00 0.00 72 1012.8
20260510140321 18 264 3.2 3.2 0.00 0.00 0.00 73 1012.9
20260510135819 17 268 1.6 4.8 0.00 0.00 0.00 75 1012.7
20260510135315 17 257 1.6 3.2 0.00 0.00 0.00 78 1012.7
20260510134813 16 258 3.2 4.8 0.00 0.00 0.00 79 1012.6
20260510134310 16 225 4.8 6.4 0.00 0.00 0.00 79 1012.8
20260510133806 16 210 3.2 4.8 0.00 0.00 0.00 83 1012.7
20260510133302 15 269 0.0 3.2 0.00 0.00 0.00 87 1012.7
20260510132757 15 233 1.6 3.2 0.00 0.00 0.00 87 1012.7
20260510132256 15 247 0.0 3.2 0.00 0.00 0.00 91 1012.8
20260510131752 15 228 1.6 3.2 0.00 0.00 0.00 92 1013.1
20260510131250 14 259 0.0 1.6 0.00 0.00 0.00 94 1012.9
20260510130746 14 263 0.0 3.2 0.00 0.00 0.00 96 1012.9
20260510130243 13 231 0.0 1.6 0.00 0.00 0.00 96 1012.8
20260510125740 12 215 1.6 1.6 0.00 0.00 0.00 96 1013.0
20260510125236 12 226 1.6 3.2 0.00 0.00 0.00 95 1012.8
20260510124732 12 272 0.0 1.6 0.00 0.00 0.00 96 1012.8
20260510124231 12 226 0.0 4.8 0.00 0.00 0.00 96 1012.7
20260510123725 12 210 1.6 3.2 0.00 0.00 0.00 96 1012.6
20260510123221 12 203 1.6 1.6 0.00 0.00 0.00 96 1012.7
20260510122718 12 248 0.0 1.6 0.00 0.00 0.00 97 1012.4
20260510122214 12 271 0.0 1.6 0.00 0.00 0.00 96 1012.6
20260510121711 12 267 0.0 3.2 0.00 0.00 0.00 96 1012.5
20260510121209 12 213 1.6 3.2 0.00 0.00 0.00 96 1012.3
20260510120705 12 210 1.6 3.2 0.00 0.00 0.00 96 1012.2
20260510120202 12 259 0.0 3.2 0.00 0.00 0.00 96 1012.3
20260510115657 12 209 3.2 4.8 0.00 0.00 0.00 96 1012.2
20260510115156 11 233 0.0 1.6 0.00 0.00 0.00 97 1012.0
20260510114651 11 264 1.6 1.6 0.00 0.00 0.00 97 1012.2
20260510114148 11 268 0.0 1.6 0.00 0.00 0.00 97 1012.3
20260510113643 11 272 0.0 1.6 0.00 0.00 0.00 97 1012.1
20260510113140 11 262 0.0 0.0 0.00 0.00 0.00 96 1012.1
20260510112637 11 275 1.6 1.6 0.00 0.00 0.00 96 1012.1
20260510112134 11 269 1.6 4.8 0.00 0.00 0.00 96 1011.9
20260510111630 11 257 0.0 0.0 0.00 0.00 0.00 97 1011.9
20260510111126 11 229 0.0 1.6 0.00 0.00 0.00 96 1011.6
20260510110621 11 279 1.6 1.6 0.00 0.00 0.00 97 1011.6
20260510110119 11 241 1.6 3.2 0.00 0.00 0.00 96 1011.6
20260510105614 11 334 3.2 3.2 0.00 0.00 0.00 96 1011.6
20260510105109 11 266 0.0 1.6 0.00 0.00 0.00 96 1011.5
20260510104606 11 234 0.0 3.2 0.00 0.00 0.00 96 1011.3
20260510104103 11 282 1.6 3.2 0.00 0.00 0.00 96 1011.2
20260510103600 11 219 1.6 1.6 0.00 0.00 0.00 96 1011.2
20260510103055 11 256 0.0 3.2 0.00 0.00 0.00 96 1011.2
20260510102551 11 242 3.2 4.8 0.00 0.00 0.00 96 1011.4
20260510102047 11 290 1.6 3.2 0.00 0.00 0.00 96 1011.3
20260510101545 11 196 3.2 4.8 0.00 0.00 0.00 96 1011.3
20260510101044 11 253 0.0 0.0 0.00 0.00 0.00 96 1011.3
20260510100539 11 268 0.0 3.2 0.00 0.00 0.00 96 1011.2
20260510100037 11 268 1.6 3.2 0.00 0.00 0.00 96 1011.5
20260510095533 11 272 3.2 3.2 0.00 0.00 0.00 96 1011.5
20260510095032 11 257 0.0 3.2 0.00 0.00 0.00 96 1011.1
20260510094527 11 266 0.0 1.6 0.00 0.00 0.00 96 1011.1
20260510094022 11 257 1.6 4.8 0.00 0.00 0.00 96 1010.9
20260510093518 11 263 0.0 1.6 0.00 0.00 0.00 96 1010.8
20260510093015 11 266 1.6 4.8 0.00 0.00 0.00 96 1011.0
20260510092512 11 316 3.2 4.8 0.00 0.00 0.00 96 1010.9
20260510092012 11 279 1.6 3.2 0.00 0.00 0.00 96 1010.8
20260510091509 11 267 1.6 3.2 0.00 0.00 0.00 96 1010.9
20260510091005 10 324 4.8 4.8 0.00 0.00 0.00 96 1010.7
20260510090502 10 240 0.0 0.0 0.00 0.00 0.00 96 1010.5
20260510085957 10 241 0.0 1.6 0.00 0.00 0.00 96 1010.3
20260510085453 10 239 0.0 0.0 0.00 0.00 0.00 96 1010.5
20260510084948 10 239 0.0 0.0 0.00 0.00 0.00 96 1010.4
20260510084446 10 239 0.0 0.0 0.00 0.00 0.00 96 1010.3
20260510083942 10 239 0.0 0.0 0.00 0.00 0.00 96 1010.3
20260510083439 10 239 0.0 0.0 0.00 0.00 0.00 96 1010.6
20260510082934 10 239 0.0 0.0 0.00 0.00 0.00 96 1010.3
20260510082432 10 239 0.0 0.0 0.00 0.00 0.00 96 1010.4
20260510081931 10 239 0.0 0.0 0.00 0.00 0.00 96 1010.4
20260510081427 10 239 0.0 0.0 0.00 0.00 0.00 96 1010.4
20260510080924 10 239 0.0 1.6 0.00 0.00 0.00 96 1010.5
20260510080423 10 239 0.0 1.6 0.00 0.00 0.00 96 1010.3
20260510075920 10 239 1.6 1.6 0.00 0.00 0.00 96 1010.2
20260510075418 10 239 0.0 0.0 0.00 0.00 0.00 95 1010.3
20260510074914 10 239 0.0 0.0 0.00 0.00 0.00 95 1010.2
20260510074411 10 239 0.0 1.6 0.00 0.00 0.00 96 1010.1
20260510073908 10 239 0.0 0.0 0.00 0.00 0.00 96 1009.9
20260510073403 10 239 0.0 0.0 0.00 0.00 0.00 96 1009.8
20260510072900 9 239 0.0 0.0 0.00 0.00 0.00 96 1009.8
20260510072356 9 238 0.0 0.0 0.00 0.00 0.00 95 1009.6
20260510071852 9 238 0.0 0.0 0.00 0.00 0.00 95 1009.8
20260510071349 9 238 0.0 0.0 0.00 0.00 0.00 95 1009.7
20260510070848 9 238 0.0 0.0 0.00 0.00 0.00 95 1009.7
20260510070344 9 238 0.0 0.0 0.00 0.00 0.00 95 1009.8
20260510065844 9 238 0.0 0.0 0.00 0.00 0.00 95 1009.8
20260510065341 8 238 0.0 0.0 0.00 0.00 0.00 95 1009.8
20260510064838 9 238 0.0 0.0 0.00 0.00 0.00 95 1009.8
20260510064336 9 238 0.0 0.0 0.00 0.00 0.00 95 1009.7
20260510063832 9 238 0.0 0.0 0.00 0.00 0.00 95 1009.8
20260510063328 9 238 0.0 0.0 0.00 0.00 0.00 95 1009.9
20260510062825 9 238 0.0 0.0 0.00 0.00 0.00 95 1009.9
20260510062321 9 238 0.0 0.0 0.00 0.00 0.00 95 1009.9
20260510061816 9 238 0.0 0.0 0.00 0.00 0.00 95 1010.0
20260510061313 9 238 0.0 0.0 0.00 0.00 0.00 95 1010.0
20260510060809 9 238 0.0 0.0 0.00 0.00 0.00 95 1010.0
20260510060307 10 238 0.0 0.0 0.00 0.00 0.00 95 1009.9
20260510055803 9 238 0.0 0.0 0.00 0.00 0.00 95 1010.0
20260510055306 10 238 0.0 0.0 0.00 0.00 0.00 95 1010.1
20260510054801 10 238 0.0 0.0 0.00 0.00 0.00 95 1010.0
20260510054257 10 238 0.0 0.0 0.00 0.00 0.00 95 1010.1
20260510053752 10 238 0.0 0.0 0.00 0.00 0.00 94 1010.2
20260510053248 10 238 0.0 0.0 0.00 0.00 0.00 95 1010.2
20260510052744 10 238 0.0 0.0 0.00 0.00 0.00 95 1010.2
20260510052240 10 238 0.0 0.0 0.00 0.00 0.00 94 1010.2
20260510051736 10 238 0.0 0.0 0.00 0.00 0.00 94 1010.3
20260510051233 10 238 0.0 0.0 0.00 0.00 0.00 95 1010.3
20260510050730 10 238 0.0 0.0 0.00 0.00 0.00 94 1010.2
20260510050227 10 238 0.0 0.0 0.00 0.00 0.00 94 1010.3
20260510045724 10 238 0.0 0.0 0.00 0.00 0.00 94 1010.5
20260510045220 10 238 0.0 0.0 0.00 0.00 0.00 94 1010.3
20260510044716 10 238 0.0 0.0 0.00 0.00 0.00 94 1010.5
20260510044215 10 238 0.0 0.0 0.00 0.00 0.00 94 1010.5
20260510043710 10 238 0.0 0.0 0.00 0.00 0.00 94 1010.5
20260510043207 10 238 0.0 0.0 0.00 0.00 0.00 94 1010.5
20260510042704 10 238 0.0 0.0 0.00 0.00 0.00 94 1010.5
20260510042200 10 238 0.0 0.0 0.00 0.00 0.00 94 1010.3
20260510041657 11 238 0.0 0.0 0.00 0.00 0.00 94 1010.4
20260510041154 11 238 0.0 0.0 0.00 0.00 0.00 94 1010.6
20260510040651 11 238 0.0 0.0 0.00 0.00 0.00 94 1010.7
20260510040148 11 238 0.0 0.0 0.00 0.00 0.00 94 1010.5
20260510035643 11 238 0.0 0.0 0.00 0.03 0.03 94 1010.7
20260510035139 11 242 0.0 0.0 0.00 0.03 0.03 94 1010.4
20260510034636 11 242 0.0 0.0 0.00 0.03 0.03 93 1010.6
20260510034133 11 242 0.0 0.0 0.00 0.03 0.03 94 1010.4
20260510033629 11 243 0.0 0.0 0.00 0.03 0.03 93 1010.3
20260510033127 11 243 0.0 0.0 0.00 0.03 0.03 93 1010.2
20260510032623 11 242 0.0 0.0 0.00 0.03 0.03 93 1010.1
20260510032119 11 243 0.0 0.0 0.00 0.03 0.03 93 1010.1
20260510031613 11 242 0.0 0.0 0.00 0.03 0.03 93 1010.1
20260510031111 11 242 0.0 0.0 0.00 0.03 0.03 93 1010.1
20260510030605 11 242 0.0 0.0 0.00 0.03 0.03 93 1009.9
20260510030103 11 242 0.0 0.0 0.00 0.03 0.03 93 1010.0
20260510025600 11 243 0.0 0.0 0.00 0.03 0.03 93 1009.9
20260510025058 11 243 0.0 0.0 0.00 0.03 0.03 93 1009.9
20260510024554 11 242 0.0 0.0 0.00 0.03 0.03 93 1010.0
20260510024050 11 242 0.0 0.0 0.00 0.03 0.03 92 1010.0
20260510023547 11 242 0.0 0.0 0.00 0.03 0.03 92 1010.3
20260510023044 11 242 0.0 0.0 0.00 0.03 0.03 92 1010.2
20260510022543 11 242 0.0 0.0 0.00 0.03 0.03 92 1010.0
20260510022037 11 242 0.0 0.0 0.00 0.03 0.03 92 1010.0
20260510021534 11 242 0.0 0.0 0.00 0.03 0.03 92 1009.9
20260510021033 11 242 0.0 0.0 0.00 0.03 0.03 92 1010.0
20260510020532 11 242 0.0 0.0 0.00 0.03 0.03 92 1009.8
20260510020028 11 242 0.0 0.0 0.00 0.03 0.03 92 1010.0
20260510015524 11 242 0.0 0.0 0.00 0.03 0.03 92 1009.9
20260510015020 11 242 0.0 0.0 0.00 0.03 0.03 92 1009.9
20260510014517 12 242 0.0 0.0 0.00 0.03 0.03 92 1009.9
20260510014014 12 242 0.0 0.0 0.00 0.03 0.03 91 1009.8
20260510013508 12 242 0.0 0.0 0.00 0.03 0.03 91 1010.0
20260510013004 12 242 0.0 0.0 0.00 0.03 0.03 91 1009.8
20260510012459 12 242 0.0 0.0 0.00 0.03 0.03 91 1009.9
20260510011954 12 242 0.0 0.0 0.00 0.03 0.03 91 1009.8
20260510011449 12 242 0.0 0.0 0.00 0.03 0.03 90 1009.9
20260510010945 12 242 0.0 0.0 0.00 0.03 0.03 90 1009.7
20260510010443 12 242 0.0 0.0 0.00 0.03 0.03 90 1009.7
20260510005940 12 242 0.0 0.0 0.00 0.03 0.03 90 1009.6
20260510005435 12 243 0.0 0.0 0.00 0.03 0.03 89 1009.6
20260510004933 12 242 0.0 0.0 0.00 0.03 0.03 89 1009.6
20260510004430 12 242 0.0 0.0 0.00 0.03 0.03 89 1009.7
20260510003928 12 243 0.0 0.0 0.00 0.03 0.03 88 1009.6
20260510003425 13 243 0.0 0.0 0.00 0.03 0.03 88 1009.7
20260510002924 13 242 0.0 0.0 0.00 0.03 0.03 87 1009.6
20260510002421 13 242 0.0 0.0 0.00 0.03 0.03 87 1009.6
20260510001918 13 242 0.0 0.0 0.00 0.03 0.03 86 1009.7
20260510001415 13 242 0.0 0.0 0.00 0.03 0.03 86 1009.6
20260510000912 13 242 0.0 0.0 0.00 0.03 0.03 85 1009.5
20260510000411 13 243 0.0 0.0 0.00 0.03 0.03 85 1009.6
20260509235905 14 243 0.0 0.0 0.00 0.03 0.03 84 1009.7
20260509235402 14 243 0.0 0.0 0.00 0.03 0.03 83 1009.8
20260509234858 14 243 0.0 0.0 0.00 0.03 0.03 83 1009.8
20260509234356 14 242 0.0 0.0 0.00 0.03 0.03 82 1009.6
20260509233853 15 242 0.0 1.6 0.00 0.03 0.03 82 1009.5
20260509233351 15 252 0.0 1.6 0.00 0.03 0.03 82 1009.4
20260509232846 15 264 1.6 1.6 0.00 0.03 0.03 81 1009.5
20260509232344 15 238 0.0 1.6 0.00 0.03 0.03 81 1009.4
20260509231840 15 235 0.0 4.8 0.00 0.03 0.03 81 1009.2